x

West Sea Otter (46204) Wave Buoy

10:00 - Sun 26th Feb 2017 All times are PST. -8 hours from GMT.

  • Sig Wave height 9.8ft
  • Peak Period 6s
  • Wind
    29mph, 34mph gusts
  • Sea Temp 46°f
  • Air Temp 41°f
  • Sea Pressure 1012.5mb
  • West Sea Otter
  • West Sea Otter

More Historic Weather Station data

Upgrade to MSW Pro to gain access to the past 30 days of data for over 8000 Wavebouys and Weather Stations around the globe.

Join Pro

Comparision Forecast

View Surf forecast
   
dim. 02/26 10:00 10ft 6s 29 34 mph 1012.5mb 46f 41f
9:00 10ft 15s 29
mph
1012.2mb 46f 41f
8:00 10ft 16s 29 36 mph 1011.5mb 46f 41f
7:00 10.5ft 16s 29 36 mph 1010.9mb 46f 40f
6:00  -   -  31
mph
1010.7mb - 41f
5:00 9ft 14s 31 38 mph 1010.5mb 46f 41f
4:00 8ft 15s 27 34 mph 1010.4mb 46f 41f
3:00 8ft 16s 22 29 mph 1010.8mb 46f 40f
2:00 8ft 17s 18 22 mph 1010.8mb 46f 40f
1:00 7ft 17s 13 18 mph 1010.6mb 46f 39f
12:00 7ft 17s 9 11 mph 1010.6mb 46f 39f
sam. 02/25 11:00 7.5ft 16s 9 13 mph 1010.7mb 46f 39f
10:00 6.5ft 16s 11 13 mph 1010.5mb 46f 39f
9:00 7ft 16s 13 18 mph 1010.3mb 46f 39f
8:00 6ft 17s 9 13 mph 1010.4mb 46f 40f
7:00 6ft 17s 13 18 mph 1010.5mb 46f 40f
6:00 5.5ft 15s 18 22 mph 1010.8mb 46f 43f
5:00 5.5ft 18s 20 25 mph 1011.8mb 46f 42f
4:00 5ft 17s 18 27 mph 1013mb 46f 43f
3:00 4.5ft 14s 20 25 mph 1014.3mb 46f 43f
2:00 4.5ft 18s 20 29 mph 1015.5mb 46f 43f
1:00 4.5ft 13s 16 18 mph 1017.7mb 46f 41f
12:00 4.5ft 14s 13 18 mph 1019.2mb 46f 42f
11:00 4ft 13s 13 16 mph 1020.5mb 46f 43f
10:00 4ft 13s 9 11 mph 1021.7mb 46f 42f
9:00 3.5ft 14s 7 9 mph 1022.5mb 46f 42f
8:00 4ft 12s 13 16 mph 1023.8mb 46f 42f
7:00 3.5ft 13s 11 13 mph 1024.2mb 46f 42f
6:00 4ft 14s 9 11 mph 1024.7mb 45f 42f
5:00 4.5ft 14s 9 13 mph 1025.2mb 46f 42f
4:00 4ft 14s 9 13 mph 1025.9mb 46f 42f
3:00 4ft 14s 11 16 mph 1026.4mb 46f 42f
2:00 4.5ft 14s 9 11 mph 1026.5mb 46f 42f
1:00 4.5ft 14s 9 11 mph 1026.4mb 46f 42f
12:00 4.5ft 13s 9 11 mph 1026.7mb 46f 42f
ven. 02/24 11:00 4.5ft 14s 9 13 mph 1027mb 46f 42f
10:00 4.5ft 13s 13 16 mph 1027.2mb 46f 42f
9:00 4.5ft 14s 13 16 mph 1027mb 46f 42f
8:00 4.5ft 14s 13 16 mph 1026.7mb 46f 42f
7:00 5ft 14s 13 16 mph 1026.5mb 46f 42f
6:00 4.5ft 14s 13 16 mph 1026mb 46f 42f
5:00 4.5ft 14s 13 16 mph 1025.7mb 46f 42f
4:00 4.5ft 14s 13 16 mph 1025.5mb 46f 42f
3:00 5ft 14s 11 16 mph 1025mb 46f 42f
2:00 5ft 14s 13 16 mph 1024.2mb 46f 41f
1:00 5.5ft 14s 11 13 mph 1024mb 46f 41f
12:00 5.5ft 15s 13 18 mph 1023.6mb 46f 40f
11:00 6ft 14s 16 20 mph 1022.6mb 46f 40f
10:00 5.5ft 14s 16 18 mph 1022.5mb 46f 40f
9:00 5ft 15s 16 18 mph 1021.8mb 46f 39f
8:00 5ft 14s 20 25 mph 1021mb 46f 39f
7:00 5ft 7s 18 25 mph 1020.4mb 46f 38f
6:00 5ft 14s 20 25 mph 1020.3mb 46f 38f
5:00 4.5ft 15s 18 22 mph 1020.1mb 46f 38f
4:00 4.5ft 15s 18 22 mph 1019.8mb 46f 37f
3:00 4.5ft 15s 18 22 mph 1019.5mb 46f 37f
2:00 4.5ft 15s 16 18 mph 1019.6mb 46f 37f
1:00 4.5ft 15s 18 22 mph 1019.5mb 46f 37f
12:00 5ft 15s 9 13 mph 1019.8mb 46f 38f
jeu. 02/23 11:00 5ft 15s 9 13 mph 1020.3mb 46f 37f
10:00 5.5ft 5s 13 18 mph 1020.6mb 46f 37f
9:00 5ft 15s 22 27 mph 1020.6mb 47f 41f
8:00 5ft 15s 25 31 mph 1021.2mb 47f 39f
7:00 4ft 15s 22 27 mph 1022.2mb 46f 40f
6:00 4ft 16s 7 9 mph 1023.4mb 46f 36f
5:00 4ft 16s 11 13 mph 1023.9mb 46f 38f
4:00 3.5ft 16s 9 13 mph 1024.6mb 47f 36f
3:00 4ft 10s 13 18 mph 1024.8mb 47f 40f
2:00 4ft 11s 13 16 mph 1025.2mb 47f 41f
1:00 4ft 10s 11 16 mph 1025.3mb 47f 41f
12:00 4.5ft 10s 9 13 mph 1025.5mb 47f 40f
11:00 4.5ft 10s 13 16 mph 1025.7mb 47f 40f
10:00 5ft 10s 16 20 mph 1026.1mb 47f 41f
9:00 4.5ft 11s 18 22 mph 1026.3mb 47f 41f
8:00 5ft 10s 16 20 mph 1026mb 47f 41f
7:00 4.5ft 10s 18 22 mph 1025.4mb 47f 41f
6:00 5ft 10s 18 25 mph 1025.3mb 47f 41f
5:00 5ft 9s 20 27 mph 1025.4mb 47f 41f
4:00 5.5ft 10s 20 25 mph 1025.6mb 47f 41f
3:00 6ft 6s 20 27 mph 1025.9mb 47f 41f
2:00 6ft 7s 20 25 mph 1025.8mb 47f 41f